WE3C Weather Reports


Display with metric or nautical units.
time (UTC)temp
F
wind
direction
speed
MPH
gust
MPH
rain 1hr
in
rain 24hr
in
rain mn
in
humidity
%
barometer
mb
20260505124545 63 209 0.0 0.0 0.00 0.00 0.00 63 1016.3
20260505123041 62 360 0.0 0.0 0.00 0.00 0.00 66 1016.1
20260505121537 61 186 0.0 0.0 0.00 0.00 0.00 69 1015.9
20260505120039 60 360 0.0 0.0 0.00 0.00 0.00 71 1015.8
20260505114539 57 360 0.0 0.0 0.00 0.00 0.00 77 1015.7
20260505113034 56 360 0.0 0.0 0.00 0.00 0.00 79 1015.5
20260505111533 54 360 0.0 0.0 0.00 0.00 0.00 80 1015.6
20260505101532 53 186 0.0 0.0 0.00 0.00 0.00 80 1015.2
20260505100028 54 360 0.0 0.0 0.00 0.00 0.00 80 1015.1
20260505094528 53 194 0.0 0.0 0.00 0.00 0.00 80 1015.0
20260505093030 53 360 0.0 0.0 0.00 0.00 0.00 79 1014.9
20260505091527 54 190 0.0 0.0 0.00 0.00 0.00 79 1015.0
20260505090019 55 360 0.0 0.0 0.00 0.00 0.00 79 1015.1
20260505084518 56 360 0.0 0.0 0.00 0.00 0.00 78 1015.0
20260505083013 58 213 0.0 0.0 0.00 0.00 0.00 71 1015.0
20260505081512 58 208 0.0 0.0 0.00 0.00 0.00 69 1014.9
20260505080008 59 186 0.0 0.0 0.00 0.00 0.00 68 1014.8
20260505074507 59 172 0.0 0.0 0.00 0.00 0.00 66 1014.7
20260505073006 59 171 0.0 0.0 0.00 0.00 0.00 67 1014.9
20260505071505 59 360 0.0 0.0 0.00 0.00 0.00 67 1014.9
20260505070006 59 360 0.0 0.0 0.00 0.00 0.00 67 1015.1
20260505064504 59 360 0.0 0.0 0.00 0.00 0.00 66 1015.1
20260505063001 60 360 0.0 0.0 0.00 0.00 0.00 66 1015.1
20260505061607 60 360 0.0 0.0 0.00 0.00 0.00 64 1015.2
20260505060057 61 360 0.0 0.0 0.00 0.00 0.00 60 1015.1
20260505054557 61 360 0.0 0.0 0.00 0.00 0.00 58 1014.9
20260505053106 61 200 0.0 0.0 0.00 0.00 0.00 58 1015.0
20260505051654 61 192 0.0 0.0 0.00 0.00 0.00 57 1015.1
20260505041600 60 360 0.0 0.0 0.00 0.00 0.00 56 1015.0
20260505040045 60 360 0.0 0.0 0.00 0.00 0.00 56 1014.8
20260505034542 60 360 0.0 0.0 0.00 0.00 0.00 54 1014.8
20260505033104 61 360 0.0 0.0 0.00 0.00 0.00 53 1014.7
20260505031541 61 360 0.0 0.0 0.00 0.00 0.00 52 1014.8
20260505030042 62 155 0.0 0.0 0.00 0.00 0.00 51 1014.7
20260505024539 62 360 0.0 0.0 0.00 0.00 0.00 50 1014.9
20260505023048 63 145 0.0 0.0 0.00 0.00 0.00 49 1014.9
20260505021539 63 142 0.0 0.0 0.00 0.00 0.00 48 1015.2
20260505020045 63 165 0.0 0.0 0.00 0.00 0.00 47 1015.1
20260505014538 63 178 0.0 0.0 0.00 0.00 0.00 47 1015.1
20260505013038 63 188 0.0 0.0 0.00 0.00 0.00 47 1015.1
20260505011537 63 360 0.0 0.0 0.00 0.00 0.00 47 1015.0
20260505010041 63 360 0.0 0.0 0.00 0.00 0.00 47 1014.9
20260505004545 64 150 0.0 0.0 0.00 0.00 0.00 47 1014.8
20260505003038 64 158 0.0 0.0 0.00 0.00 0.00 47 1014.6
20260505001535 64 360 0.0 0.0 0.00 0.00 0.00 46 1014.5
20260505000035 65 156 0.0 0.0 0.00 0.00 0.00 44 1014.5
20260504234543 66 360 0.0 0.0 0.00 0.00 0.00 44 1014.5
20260504233032 66 360 0.0 0.0 0.00 0.00 0.00 42 1014.4
20260504231541 67 360 0.0 0.0 0.00 0.00 0.00 41 1014.3
20260504230029 67 187 0.0 0.0 0.00 0.00 0.00 40 1014.2
20260504224529 68 193 0.0 0.0 0.00 0.00 0.00 40 1014.2
20260504223028 69 360 0.0 0.0 0.00 0.00 0.00 39 1014.2
20260504221527 70 184 0.0 0.0 0.00 0.00 0.00 37 1014.2
20260504220026 70 360 0.0 0.0 0.00 0.00 0.00 37 1014.2
20260504214534 70 199 0.0 0.0 0.00 0.00 0.00 36 1014.3
20260504213029 70 218 0.0 0.0 0.00 0.00 0.00 36 1014.2
20260504211524 71 204 0.0 0.0 0.00 0.00 0.00 36 1014.5
20260504210019 71 209 0.0 0.0 0.00 0.00 0.00 37 1014.4
20260504204539 71 190 0.0 0.0 0.00 0.00 0.00 36 1014.7
20260504203017 71 219 0.0 0.0 0.00 0.00 0.00 35 1014.7
20260504201514 71 246 0.0 0.0 0.00 0.00 0.00 36 1014.8
20260504200014 70 212 0.0 0.0 0.00 0.00 0.00 36 1014.9
20260504194511 69 217 0.0 0.0 0.00 0.00 0.00 38 1015.1
20260504193010 70 242 0.0 0.0 0.00 0.00 0.00 36 1015.4
20260504191502 70 217 0.0 0.0 0.00 0.00 0.00 36 1015.5
20260504184605 70 191 0.0 0.0 0.00 0.00 0.00 37 1015.7
20260504183100 70 219 0.0 0.0 0.00 0.00 0.00 37 1016.1
20260504181554 69 198 0.0 0.0 0.00 0.00 0.00 37 1016.2
20260504180052 69 208 0.0 0.0 0.00 0.00 0.00 38 1016.5
20260504174550 68 241 0.0 0.0 0.00 0.00 0.00 38 1016.6
20260504173043 67 184 0.0 0.0 0.00 0.00 0.00 38 1016.8
20260504171546 67 205 0.0 0.0 0.00 0.00 0.00 38 1017.2